Location: Chervonnoye
(48.6000°N, 34.4000°E)
Time: 00:23:36
(UTC+00:00)

KAITUO 1B - Pass Details

Date: 29 November 2021
Orbit: 486 x 507 km, 97.4° (Epoch: 16 January)

Event Time Altitude Azimuth Distance (km) Brightness Sun altitude
Rises 03:22:52 0° 26° (NNE) 2,633 ? -17.2°
Reaches altitude 10° 03:25:25 10° 44° (NE) 1,739 ? -16.8°
Maximum altitude 03:28:12 20° 92° (E) 1,243 ? -16.4°
Drops below altitude 10° 03:30:57 10° 140° (SE) 1,722 ? -15.9°
Sets 03:33:28 0° 159° (SSE) 2,598 ? -15.5°
